| time (UTC) | temp F | wind direction | speed MPH | gust MPH | rain 1hr in | rain 24hr in | rain mn in | humidity % | barometer mb |
| 20260502220032 | 61 | 180 | 5.0 | 9.0 | 0.00 | 0.00 | 0.00 | 28 | |
| 20260502214028 | 61 | 180 | 8.0 | 9.0 | 0.00 | 0.00 | 0.00 | 26 | |
| 20260502213027 | 61 | 180 | 5.0 | 6.0 | 0.00 | 0.00 | 0.00 | 25 | |
| 20260502212025 | 61 | 180 | 1.0 | 6.0 | 0.00 | 0.00 | 0.00 | 24 | |
| 20260502211024 | 61 | 180 | 0.0 | 6.0 | 0.00 | 0.00 | 0.00 | 25 | |
| 20260502205022 | 59 | 180 | 6.0 | 17.0 | 0.00 | 0.00 | 0.00 | 28 | |
| 20260502203020 | 60 | 180 | 10.0 | 16.0 | 0.00 | 0.00 | 0.00 | 25 | |
| 20260502202020 | 60 | 180 | 9.0 | 11.0 | 0.00 | 0.00 | 0.00 | 26 | |
| 20260502201019 | 60 | 180 | 9.0 | 10.0 | 0.00 | 0.00 | 0.00 | 24 | |
| 20260502200018 | 59 | 180 | 10.0 | 13.0 | 0.00 | 0.00 | 0.00 | 24 | |
| 20260502195016 | 61 | 180 | 9.0 | 12.0 | 0.00 | 0.00 | 0.00 | 22 | |
| 20260502194015 | 62 | 180 | 6.0 | 12.0 | 0.00 | 0.00 | 0.00 | 20 | |
| 20260502191012 | 59 | 180 | 5.0 | 14.0 | 0.00 | 0.00 | 0.00 | 24 | |
| 20260502185011 | 61 | 180 | 7.0 | 8.0 | 0.00 | 0.00 | 0.00 | 21 | |
| 20260502184009 | 62 | 180 | 1.0 | 8.0 | 0.00 | 0.00 | 0.00 | 19 | |
| 20260502183009 | 62 | 180 | 3.0 | 6.0 | 0.00 | 0.00 | 0.00 | 19 | |
| 20260502182007 | 61 | 180 | 2.0 | 7.0 | 0.00 | 0.00 | 0.00 | 22 | |
| 20260502181007 | 61 | 180 | 5.0 | 10.0 | 0.00 | 0.00 | 0.00 | 19 | |
| 20260502163958 | 56 | 180 | 6.0 | 9.0 | 0.00 | 0.00 | 0.00 | 23 | |
| 20260502162957 | 56 | 180 | 3.0 | 7.0 | 0.00 | 0.00 | 0.00 | 22 | |
| 20260502161956 | 54 | 180 | 6.0 | 6.0 | 0.00 | 0.00 | 0.00 | 24 | |
| 20260502160955 | 53 | 180 | 3.0 | 10.0 | 0.00 | 0.00 | 0.00 | 24 | |
| 20260502151950 | 52 | 180 | 8.0 | 10.0 | 0.00 | 0.00 | 0.00 | 28 | |
| 20260502122933 | 35 | 180 | 0.0 | 0.0 | 0.00 | 0.00 | 0.00 | 64 | |
| 20260502121931 | 34 | 180 | 0.0 | 0.0 | 0.00 | 0.00 | 0.00 | 77 | |
| 20260502120930 | 32 | 180 | 0.0 | 0.0 | 0.00 | 0.00 | 0.00 | 79 | |
| 20260502115929 | 31 | 180 | 0.0 | 0.0 | 0.00 | 0.00 | 0.00 | 82 | |
| 20260502114928 | 30 | 180 | 0.0 | 0.0 | 0.00 | 0.00 | 0.00 | 82 | |
| 20260502113927 | 29 | 180 | 0.0 | 0.0 | 0.00 | 0.00 | 0.00 | 81 | |
| 20260502112926 | 29 | 180 | 0.0 | 0.0 | 0.00 | 0.00 | 0.00 | 82 | |
| 20260502112037 | 28 | 180 | 0.0 | 0.0 | 0.00 | 0.00 | 0.00 | 82 | |
| 20260502111955 | 28 | 180 | 0.0 | 0.0 | 0.00 | 0.00 | 0.00 | 82 | |
| 20260502111925 | 28 | 180 | 0.0 | 0.0 | 0.00 | 0.00 | 0.00 | 82 | |
| 20260502105923 | 27 | 180 | 0.0 | 0.0 | 0.00 | 0.00 | 0.00 | 83 | |
| 20260502104959 | 27 | 180 | 0.0 | 0.0 | 0.00 | 0.00 | 0.00 | 82 | |
| 20260502104922 | 27 | 180 | 0.0 | 0.0 | 0.00 | 0.00 | 0.00 | 82 | |
| 20260502103922 | 27 | 180 | 0.0 | 0.0 | 0.00 | 0.00 | 0.00 | 80 | |
| 20260502102012 | 27 | 180 | 0.0 | 0.0 | 0.00 | 0.00 | 0.00 | 79 | |
| 20260502101919 | 27 | 180 | 0.0 | 0.0 | 0.00 | 0.00 | 0.00 | 79 | |
| 20260502070854 | 28 | 180 | 0.0 | 0.0 | 0.00 | 0.00 | 0.00 | 72 | |
| 20260502065853 | 28 | 180 | 0.0 | 0.0 | 0.00 | 0.00 | 0.00 | 71 | |
| 20260502064852 | 28 | 180 | 0.0 | 0.0 | 0.00 | 0.00 | 0.00 | 70 | |
| 20260502063851 | 29 | 180 | 0.0 | 0.0 | 0.00 | 0.00 | 0.00 | 69 | |
| 20260502062851 | 30 | 180 | 0.0 | 0.0 | 0.00 | 0.00 | 0.00 | 69 | |
| 20260502061850 | 30 | 180 | 0.0 | 0.0 | 0.00 | 0.00 | 0.00 | 70 | |
| 20260502055848 | 30 | 180 | 0.0 | 0.0 | 0.00 | 0.00 | 0.00 | 67 | |
| 20260502054847 | 30 | 180 | 0.0 | 0.0 | 0.00 | 0.00 | 0.00 | 65 | |
| 20260502053846 | 30 | 180 | 0.0 | 0.0 | 0.00 | 0.00 | 0.00 | 65 | |
| 20260502052844 | 31 | 180 | 0.0 | 0.0 | 0.00 | 0.00 | 0.00 | 64 | |
| 20260502051844 | 31 | 180 | 0.0 | 0.0 | 0.00 | 0.00 | 0.00 | 63 | |
| 20260502050842 | 31 | 180 | 0.0 | 0.0 | 0.00 | 0.00 | 0.00 | 63 | |
| 20260502045842 | 31 | 180 | 0.0 | 0.0 | 0.00 | 0.00 | 0.00 | 62 | |
| 20260502044840 | 31 | 180 | 0.0 | 0.0 | 0.00 | 0.00 | 0.00 | 62 | |
| 20260502043839 | 32 | 180 | 0.0 | 0.0 | 0.00 | 0.00 | 0.00 | 60 | |
| 20260502042838 | 32 | 180 | 0.0 | 0.0 | 0.00 | 0.00 | 0.00 | 59 | |
| 20260502041838 | 32 | 180 | 0.0 | 0.0 | 0.00 | 0.00 | 0.00 | 58 | |
| 20260502040837 | 33 | 180 | 0.0 | 0.0 | 0.00 | 0.00 | 0.00 | 56 | |
| 20260502035835 | 34 | 180 | 0.0 | 0.0 | 0.00 | 0.00 | 0.00 | 55 | |
| 20260502034834 | 34 | 180 | 0.0 | 0.0 | 0.00 | 0.00 | 0.00 | 53 | |
| 20260502033833 | 35 | 180 | 0.0 | 0.0 | 0.00 | 0.00 | 0.00 | 52 | |
| 20260502032832 | 35 | 180 | 0.0 | 0.0 | 0.00 | 0.00 | 0.00 | 51 | |
| 20260502031831 | 36 | 180 | 0.0 | 0.0 | 0.00 | 0.00 | 0.00 | 50 | |
| 20260502030830 | 36 | 180 | 0.0 | 0.0 | 0.00 | 0.00 | 0.00 | 49 | |
| 20260502025829 | 37 | 180 | 0.0 | 0.0 | 0.00 | 0.00 | 0.00 | 48 | |
| 20260502024828 | 38 | 180 | 0.0 | 0.0 | 0.00 | 0.00 | 0.00 | 47 | |
| 20260502023828 | 38 | 180 | 0.0 | 0.0 | 0.00 | 0.00 | 0.00 | 44 | |
| 20260502022826 | 39 | 180 | 0.0 | 0.0 | 0.00 | 0.00 | 0.00 | 44 | |
| 20260502020824 | 41 | 180 | 0.0 | 0.0 | 0.00 | 0.00 | 0.00 | 42 | |
| 20260502015824 | 42 | 180 | 0.0 | 0.0 | 0.00 | 0.00 | 0.00 | 39 | |
| 20260502014822 | 43 | 180 | 0.0 | 0.0 | 0.00 | 0.00 | 0.00 | 38 | |
| 20260502013821 | 44 | 180 | 0.0 | 0.0 | 0.00 | 0.00 | 0.00 | 35 | |
| 20260502012820 | 45 | 180 | 0.0 | 0.0 | 0.00 | 0.00 | 0.00 | 34 | |
| 20260502010816 | 49 | 180 | 0.0 | 3.0 | 0.00 | 0.00 | 0.00 | 26 | |
| 20260502005815 | 52 | 180 | 0.0 | 0.0 | 0.00 | 0.00 | 0.00 | 21 | |
| 20260502004814 | 52 | 180 | 0.0 | 4.0 | 0.00 | 0.00 | 0.00 | 21 | |
| 20260502003814 | 52 | 180 | 0.0 | 4.0 | 0.00 | 0.00 | 0.00 | 21 | |
| 20260502002813 | 54 | 180 | 0.0 | 4.0 | 0.00 | 0.00 | 0.00 | 19 | |
| 20260502001812 | 52 | 180 | 5.0 | 9.0 | 0.00 | 0.00 | 0.00 | 18 | |
| 20260502000811 | 52 | 180 | 0.0 | 6.0 | 0.00 | 0.00 | 0.00 | 19 | |
| 20260501235810 | 52 | 180 | 6.0 | 10.0 | 0.00 | 0.00 | 0.00 | 22 | |
| 20260501234808 | 53 | 180 | 2.0 | 7.0 | 0.00 | 0.00 | 0.00 | 19 | |
| 20260501233807 | 52 | 180 | 4.0 | 9.0 | 0.00 | 0.00 | 0.00 | 20 | |
| 20260501232807 | 52 | 180 | 4.0 | 12.0 | 0.00 | 0.00 | 0.00 | 23 | |
| 20260501231805 | 51 | 180 | 3.0 | 6.0 | 0.00 | 0.00 | 0.00 | 20 | |
| 20260501225804 | 53 | 180 | 1.0 | 8.0 | 0.00 | 0.00 | 0.00 | 22 | |
| 20260501224802 | 52 | 180 | 5.0 | 8.0 | 0.00 | 0.00 | 0.00 | 18 | |
| 20260501222757 | 52 | 180 | 9.0 | 9.0 | 0.00 | 0.00 | 0.00 | 18 | |
| 20260501220756 | 53 | 180 | 1.0 | 5.0 | 0.00 | 0.00 | 0.00 | 21 |